Location: Les Chemineaux
(47.3024°N, 1.5104°E)
Time: 20:31:57
(UTC+00:00)

Okean O Rocket - Pass Details

Date: 19 May 2025
Orbit: 614 x 636 km, 98.0° (Epoch: 21 June)

Event Time Altitude Azimuth Distance (km) Brightness Sun altitude
Exits shadow 21:34:49 - 212° (SSW) 2,719 4.6 -16.1°
Reaches altitude 10° 21:37:14 10° 232° (SW) 2,001 4.1 -16.4°
Maximum altitude 21:39:55 16° 270° (W) 1,648 4.1 -16.6°
Drops below altitude 10° 21:42:35 10° 308° (NW) 2,003 5.3 -16.8°
Sets 21:45:35 0° 330° (NNW) 2,911 6.8 -17.1°
